Location: Hopewell Observatory
(38.8698°N, 77.6988°W)
Time: 12:26:32
(UTC-04:00)

Cosmos 2322 - Pass Details

Date: 26 May 2018
Orbit: 842 x 853 km, 71.0° (Epoch: 22 October)

Event Time Altitude Azimuth Distance (km) Brightness Sun altitude
Rises 21:52:15 0° 343° (NNW) 3,431 8.0 -14.4°
Reaches altitude 10° 21:54:51 10° 350° (N) 2,491 7.0 -14.8°
Maximum altitude 22:00:17 43° 62° (ENE) 1,176 4.3 -15.5°
Enters shadow 22:03:22 24° 120° (ESE) 1,709 4.7 -16.0°
